(°C)
(°C)
WNW
WNW
WNW
WNW
WNW
WNW
NW
(km/h)
10-17
10-19
11-21
12-22
14-25
16-30
19-39
(mm)
0
0
0
0
0
0
0
(%)
0
0
0
0
0
0
0

Elevazione del sole

/ -3.2°
sun-icon
UV 2
04:03
20:51
Luna calante (291°)
02:43
13:27

METAR per 55.6°N 37.27°E (UUWW)

Ora Condizioni Temperatura/
Punto di rugiada
Vento Visibilità Meteo Nuvole Pressione Cambiamento Grezzo
VFR 7°C / -6°C 300º 4kt >10km - Clouds and Visibility OK 1005 No Significant change UUWW 240030Z 30002MPS CAVOK 07/M06 Q1005 R24/000070 NOSIG
VFR 7°C / -6°C 270º 4kt >10km - Clouds and Visibility OK 1005 No Significant change UUWW 240000Z 27002MPS CAVOK 07/M06 Q1005 R24/000070 NOSIG
VFR 7°C / -6°C 290º 4kt >10km - Clouds and Visibility OK 1004 No Significant change UUWW 232330Z 29002MPS CAVOK 07/M06 Q1004 R24/000070 NOSIG
VFR 8°C / -6°C 290º 4kt >10km - Clouds and Visibility OK 1004 No Significant change UUWW 232300Z 29002MPS CAVOK 08/M06 Q1004 R24/000070 NOSIG
VFR 8°C / -6°C 290º 6kt >10km - Clouds and Visibility OK 1005 No Significant change UUWW 232230Z 29003MPS CAVOK 08/M06 Q1005 R24/000070 NOSIG
VFR 8°C / -7°C 330º 8kt >10km - Clouds and Visibility OK 1004 No Significant change UUWW 232200Z 33004MPS CAVOK 08/M07 Q1004 R24/000070 NOSIG
VFR 9°C / -7°C 330º 6kt >10km - Clouds and Visibility OK 1004 No Significant change UUWW 232130Z 33003MPS CAVOK 09/M07 Q1004 R24/000070 NOSIG
VFR 9°C / -7°C 290º 6kt >10km - Clouds and Visibility OK 1004 No Significant change UUWW 232100Z 29003MPS CAVOK 09/M07 Q1004 R24/000070 NOSIG
VFR 9°C / -7°C 290º 4kt >10km - Clouds and Visibility OK 1004 No Significant change UUWW 232030Z 29002MPS CAVOK 09/M07 Q1004 R24/000070 NOSIG
VFR 9°C / -7°C 270º 6kt >10km - Clouds and Visibility OK 1004 No Significant change UUWW 232000Z 27003MPS CAVOK 09/M07 Q1004 R24/000070 NOSIG
VFR 9°C / -7°C 270º 6kt >10km - Clouds and Visibility OK 1004 No Significant change UUWW 231930Z 27003MPS CAVOK 09/M07 Q1004 R24/000070 NOSIG
VFR 10°C / -7°C 270º 6kt >10km - Clouds and Visibility OK 1004 No Significant change UUWW 231900Z 27003MPS CAVOK 10/M07 Q1004 R24/000070 NOSIG
VFR 11°C / -8°C 280º 6kt >10km - Clouds and Visibility OK 1004 No Significant change UUWW 231830Z 28003MPS CAVOK 11/M08 Q1004 R24/000070 NOSIG
VFR 11°C / -8°C 290º 6kt >10km - Clouds and Visibility OK 1004 No Significant change UUWW 231800Z 29003MPS CAVOK 11/M08 Q1004 R24/000070 NOSIG
VFR 12°C / -9°C 300º 8kt >10km - Clouds and Visibility OK 1004 No Significant change UUWW 231730Z 30004MPS CAVOK 12/M09 Q1004 R24/000070 NOSIG
VFR 13°C / -8°C 310º 14kt >10km - Clouds and Visibility OK 1004 No Significant change UUWW 231700Z 31007MPS CAVOK 13/M08 Q1004 R24/000070 NOSIG
VFR 14°C / -8°C 320º 14kt. Wind Shear present on Runway 24. >10km - Clouds and Visibility OK 1004 No Significant change UUWW 231630Z 32007MPS CAVOK 14/M08 Q1004 WS R24 R24/000070 NOSIG
VFR 14°C / -8°C 310º 14kt. Wind Shear present on Runway 24. >10km - Clouds and Visibility OK 1004 No Significant change UUWW 231600Z 31007MPS CAVOK 14/M08 Q1004 WS R24 R24/000070 NOSIG
VFR 14°C / -8°C 320º 16kt. Wind Shear present on Runway 24. >10km - Clouds and Visibility OK 1004 No Significant change UUWW 231530Z 32008MPS CAVOK 14/M08 Q1004 WS R24 R24/000070 NOSIG
VFR 14°C / -8°C 320º 16kt. Wind Shear present on Runway 24. >10km - Clouds and Visibility OK 1004 No Significant change UUWW 231500Z 32008MPS CAVOK 14/M08 Q1004 WS R24 R24/000070 NOSIG
VFR 14°C / -7°C 290º 12kt. Wind Shear present on Runway 24. >10km - Clouds and Visibility OK 1003 No Significant change UUWW 231430Z 29006MPS CAVOK 14/M07 Q1003 WS R24 R24/000070 NOSIG
VFR 14°C / -5°C 300º 14kt. Wind Shear present on Runway 24. >10km - Clouds and Visibility OK 1003 No Significant change UUWW 231400Z 30007MPS CAVOK 14/M05 Q1003 WS R24 R24/000070 NOSIG
VFR 14°C / -5°C 300º 14kt. Wind Shear present on Runway 24. >10km - Clouds and Visibility OK 1003 No Significant change UUWW 231330Z 30007MPS CAVOK 14/M05 Q1003 WS R24 R24/000070 NOSIG
VFR 14°C / -4°C 310º variable 270º to 350º 12kt Gust 21kt. Wind Shear present on Runway 24. >10km - Clouds and Visibility OK 1004 No Significant change UUWW 231300Z 31006G11MPS 270V350 CAVOK 14/M04 Q1004 WS R24 R24/000070 NOSIG

VFR

7°C / -6°C

[Più]
Vento 300º 4kt
Visibilità >10km
Meteo -
Nuvole Clouds and Visibility OK
Pressione 1005
Cambiamento No Significant change
Grezzo UUWW 240030Z 30002MPS CAVOK 07/M06 Q1005 R24/000070 NOSIG

VFR

7°C / -6°C

[Più]
Vento 270º 4kt
Visibilità >10km
Meteo -
Nuvole Clouds and Visibility OK
Pressione 1005
Cambiamento No Significant change
Grezzo UUWW 240000Z 27002MPS CAVOK 07/M06 Q1005 R24/000070 NOSIG

VFR

7°C / -6°C

[Più]
Vento 290º 4kt
Visibilità >10km
Meteo -
Nuvole Clouds and Visibility OK
Pressione 1004
Cambiamento No Significant change
Grezzo UUWW 232330Z 29002MPS CAVOK 07/M06 Q1004 R24/000070 NOSIG

VFR

8°C / -6°C

[Più]
Vento 290º 4kt
Visibilità >10km
Meteo -
Nuvole Clouds and Visibility OK
Pressione 1004
Cambiamento No Significant change
Grezzo UUWW 232300Z 29002MPS CAVOK 08/M06 Q1004 R24/000070 NOSIG

VFR

8°C / -6°C

[Più]
Vento 290º 6kt
Visibilità >10km
Meteo -
Nuvole Clouds and Visibility OK
Pressione 1005
Cambiamento No Significant change
Grezzo UUWW 232230Z 29003MPS CAVOK 08/M06 Q1005 R24/000070 NOSIG

VFR

8°C / -7°C

[Più]
Vento 330º 8kt
Visibilità >10km
Meteo -
Nuvole Clouds and Visibility OK
Pressione 1004
Cambiamento No Significant change
Grezzo UUWW 232200Z 33004MPS CAVOK 08/M07 Q1004 R24/000070 NOSIG

VFR

9°C / -7°C

[Più]
Vento 330º 6kt
Visibilità >10km
Meteo -
Nuvole Clouds and Visibility OK
Pressione 1004
Cambiamento No Significant change
Grezzo UUWW 232130Z 33003MPS CAVOK 09/M07 Q1004 R24/000070 NOSIG

VFR

9°C / -7°C

[Più]
Vento 290º 6kt
Visibilità >10km
Meteo -
Nuvole Clouds and Visibility OK
Pressione 1004
Cambiamento No Significant change
Grezzo UUWW 232100Z 29003MPS CAVOK 09/M07 Q1004 R24/000070 NOSIG

VFR

9°C / -7°C

[Più]
Vento 290º 4kt
Visibilità >10km
Meteo -
Nuvole Clouds and Visibility OK
Pressione 1004
Cambiamento No Significant change
Grezzo UUWW 232030Z 29002MPS CAVOK 09/M07 Q1004 R24/000070 NOSIG

VFR

9°C / -7°C

[Più]
Vento 270º 6kt
Visibilità >10km
Meteo -
Nuvole Clouds and Visibility OK
Pressione 1004
Cambiamento No Significant change
Grezzo UUWW 232000Z 27003MPS CAVOK 09/M07 Q1004 R24/000070 NOSIG

VFR

9°C / -7°C

[Più]
Vento 270º 6kt
Visibilità >10km
Meteo -
Nuvole Clouds and Visibility OK
Pressione 1004
Cambiamento No Significant change
Grezzo UUWW 231930Z 27003MPS CAVOK 09/M07 Q1004 R24/000070 NOSIG

VFR

10°C / -7°C

[Più]
Vento 270º 6kt
Visibilità >10km
Meteo -
Nuvole Clouds and Visibility OK
Pressione 1004
Cambiamento No Significant change
Grezzo UUWW 231900Z 27003MPS CAVOK 10/M07 Q1004 R24/000070 NOSIG

VFR

11°C / -8°C

[Più]
Vento 280º 6kt
Visibilità >10km
Meteo -
Nuvole Clouds and Visibility OK
Pressione 1004
Cambiamento No Significant change
Grezzo UUWW 231830Z 28003MPS CAVOK 11/M08 Q1004 R24/000070 NOSIG

VFR

11°C / -8°C

[Più]
Vento 290º 6kt
Visibilità >10km
Meteo -
Nuvole Clouds and Visibility OK
Pressione 1004
Cambiamento No Significant change
Grezzo UUWW 231800Z 29003MPS CAVOK 11/M08 Q1004 R24/000070 NOSIG

VFR

12°C / -9°C

[Più]
Vento 300º 8kt
Visibilità >10km
Meteo -
Nuvole Clouds and Visibility OK
Pressione 1004
Cambiamento No Significant change
Grezzo UUWW 231730Z 30004MPS CAVOK 12/M09 Q1004 R24/000070 NOSIG

VFR

13°C / -8°C

[Più]
Vento 310º 14kt
Visibilità >10km
Meteo -
Nuvole Clouds and Visibility OK
Pressione 1004
Cambiamento No Significant change
Grezzo UUWW 231700Z 31007MPS CAVOK 13/M08 Q1004 R24/000070 NOSIG

VFR

14°C / -8°C

[Più]
Vento 320º 14kt. Wind Shear present on Runway 24.
Visibilità >10km
Meteo -
Nuvole Clouds and Visibility OK
Pressione 1004
Cambiamento No Significant change
Grezzo UUWW 231630Z 32007MPS CAVOK 14/M08 Q1004 WS R24 R24/000070 NOSIG

VFR

14°C / -8°C

[Più]
Vento 310º 14kt. Wind Shear present on Runway 24.
Visibilità >10km
Meteo -
Nuvole Clouds and Visibility OK
Pressione 1004
Cambiamento No Significant change
Grezzo UUWW 231600Z 31007MPS CAVOK 14/M08 Q1004 WS R24 R24/000070 NOSIG

VFR

14°C / -8°C

[Più]
Vento 320º 16kt. Wind Shear present on Runway 24.
Visibilità >10km
Meteo -
Nuvole Clouds and Visibility OK
Pressione 1004
Cambiamento No Significant change
Grezzo UUWW 231530Z 32008MPS CAVOK 14/M08 Q1004 WS R24 R24/000070 NOSIG

VFR

14°C / -8°C

[Più]
Vento 320º 16kt. Wind Shear present on Runway 24.
Visibilità >10km
Meteo -
Nuvole Clouds and Visibility OK
Pressione 1004
Cambiamento No Significant change
Grezzo UUWW 231500Z 32008MPS CAVOK 14/M08 Q1004 WS R24 R24/000070 NOSIG

VFR

14°C / -7°C

[Più]
Vento 290º 12kt. Wind Shear present on Runway 24.
Visibilità >10km
Meteo -
Nuvole Clouds and Visibility OK
Pressione 1003
Cambiamento No Significant change
Grezzo UUWW 231430Z 29006MPS CAVOK 14/M07 Q1003 WS R24 R24/000070 NOSIG

VFR

14°C / -5°C

[Più]
Vento 300º 14kt. Wind Shear present on Runway 24.
Visibilità >10km
Meteo -
Nuvole Clouds and Visibility OK
Pressione 1003
Cambiamento No Significant change
Grezzo UUWW 231400Z 30007MPS CAVOK 14/M05 Q1003 WS R24 R24/000070 NOSIG

VFR

14°C / -5°C

[Più]
Vento 300º 14kt. Wind Shear present on Runway 24.
Visibilità >10km
Meteo -
Nuvole Clouds and Visibility OK
Pressione 1003
Cambiamento No Significant change
Grezzo UUWW 231330Z 30007MPS CAVOK 14/M05 Q1003 WS R24 R24/000070 NOSIG

VFR

14°C / -4°C

[Più]
Vento 310º variable 270º to 350º 12kt Gust 21kt. Wind Shear present on Runway 24.
Visibilità >10km
Meteo -
Nuvole Clouds and Visibility OK
Pressione 1004
Cambiamento No Significant change
Grezzo UUWW 231300Z 31006G11MPS 270V350 CAVOK 14/M04 Q1004 WS R24 R24/000070 NOSIG

TAF per 55.6°N 37.27°E (UUWW)

From till


Maximum Temperature 9ºC on . Minimum Temperature 3ºC on .
From till Wind 300º 10kt. Visibility 10km or more. Broken Clouds 1600ft.
Temporarly from till Wind 290º 16kt. Gust 27kt. Light Showers Rain Light Showers Snow . Few Clouds 600ft. Scattered Clouds 2000ft.
Temporarly from till Wind 350º 16kt. Gust 31kt. Light Showers Rain . Scattered Clouds 2000ft.
Becoming from till Wind 10º 6kt. Visibility 10km or more. Broken Clouds 1600ft.

Grezzo: TAF UUWW 232254Z 2400/2424 30005MPS 9999 BKN016 TX09/2412Z TN03/2402Z TEMPO 2402/2407 29008G14MPS -SHRASN FEW006 SCT020CB TEMPO 2407/2416 35008G16MPS -SHRA SCT020CB BECMG 2416/2419 01003MPS

Radar e nowcasting per 55.6°N 37.27°E

Pioviggine
Lieve
Moderato
Forte
Molto forte
Grandine

Il segnaposto è situato a 55.6°N 37.27°E. Questa animazione mostra il radar delle precipitazioni per l'ultima ora, nonché una previsione 1h. Una pioviggine o una leggera caduta di neve potrebbero essere invisibili per il radar. L'intensità delle precipitazioni è codificata a colori, dal blu chiaro all'arancione.

Tempo in atto per 55.6°N 37.27°E: immagine satellitare e pioggia

Il segnaposto è situato a 55.6°N 37.27°E. [Più]

L'immagine satellitare in tempo reale combina la luce visibile durante il giorno con la radiazione infrarossa durante la notte. Di notte l'immagine non è scura poiché i raggi infrarossi possono rilevare differenze di temperatura. Purtroppo, le nuvole basse e la nebbia sono difficili da distinguere dalla temperatura del suolo e possono pertanto essere quasi invisibili durante la notte. Le immagini satellitari Meteosat per l'Europa vengono aggiornate in tempo reale ogni 5 minuti. Le immagini GOES-16 / GOES-17 (Nord e Sud America) e Himawari (Asia) vengono aggiornate ogni 10 minuti.

Copyright 2022 EUMETSAT / meteoblue. / Copyright 2022 meteoblue

Tornare su